Terminal Aerodrome Forecast
Issued by NWS Cleveland, OH

Home | Current Version | Previous Version | Graphics & Text | Print | Product List | Glossary On
Versions: 1 2 3 4 5 6 7 8 9 10 11 12 13 14 15 16 17 18 19
000
FTUS41 KCLE 252300
TAFYNG
TAF
KYNG 252328Z 2600/2624 02005KT P6SM BKN150
     FM261200 05006KT 3SM -SN OVC025
     FM261400 03008KT 1 1/2SM -SN BR OVC015
     FM262200 01008KT 3SM -SN BR OVC015=

USA.gov is the U.S. government's official web portal to all federal, state and local government web resources and services.